Location: Newark
(35.9031°N, 139.7175°E)
Time: 13:37:27
(UTC+00:00)

Transit 2A - Pass Details

Date: 31 May 2020
Orbit: 592 x 967 km, 66.7° (Epoch: 06 July)

Event Time Altitude Azimuth Distance (km) Brightness Sun altitude
Rises 14:04:24 0° 321° (NW) 3,605 10.3 -31.5°
Reaches altitude 10° 14:07:13 10° 311° (NW) 2,684 9.3 -31.6°
Enters shadow 14:11:34 29° 270° (W) 1,698 7.7 -31.7°
